Weather reports worldwide

Advertisment
Ciudad Real, Spain (8348): temperature & dewpoint: 28.06.2020 17:00:00 - 04.07.2020 17:00:00 (CEST)Ciudad Real, Spain (8348): wind speed: 28.06.2020 17:00:00 - 04.07.2020 17:00:00 (CEST)Ciudad Real, Spain (8348): wind direction: 28.06.2020 17:00:00 - 04.07.2020 17:00:00 (CEST)Ciudad Real, Spain (8348): reduced air pressure: 28.06.2020 17:00:00 - 04.07.2020 17:00:00 (CEST)Ciudad Real, Spain (8348): visibility: 28.06.2020 17:00:00 - 04.07.2020 17:00:00 (CEST)Ciudad Real, Spain (8348): precipitation: 28.06.2020 17:00:00 - 04.07.2020 17:00:00 (CEST)
Date & Time tt [°C] td [°C] ff [km/h] ff [kn] dd ppp [hPa] vv [km] rr [mm]
04.07.2020 17:00:00 - - - - - - - -
04.07.2020 16:00:00 35,6 4,0 5 3 ESE 1015,4 20 0,0
04.07.2020 15:00:00 34,6 3,2 8 4 SE 1016,2 20 0,0
04.07.2020 14:00:00 33,8 7,0 8 4 WSW 1017,1 20 -
04.07.2020 13:00:00 32,2 9,7 9 5 ENE 1017,9 20 0,0
04.07.2020 12:00:00 29,8 14,0 5 3 NE 1018,3 20 0,0
04.07.2020 11:00:00 26,8 15,5 9 5 E 1018,9 20 -
04.07.2020 10:00:00 24,1 14,8 8 4 ENE 1019,6 20 0,0
04.07.2020 09:00:00 21,4 15,9 11 6 E 1020,0 19 0,0
04.07.2020 08:00:00 18,7 12,7 8 4 E 1020,3 20 -
04.07.2020 07:00:00 18,9 8,8 8 4 E 1020,1 20 0,0
04.07.2020 06:00:00 19,2 3,4 5 3 E 1019,7 20 0,0
04.07.2020 05:00:00 20,0 3,2 2 1 SE 1019,1 20 -
04.07.2020 04:00:00 22,0 5,4 4 2 WNW 1018,4 19 0,0
04.07.2020 03:00:00 23,6 4,0 4 2 WNW 1018,0 20 0,0
04.07.2020 02:00:00 24,4 3,1 4 2 WNW 1018,0 20 -
04.07.2020 01:00:00 25,6 2,3 8 4 WNW 1017,6 20 0,0
04.07.2020 00:00:00 26,2 3,4 8 4 NW 1017,2 20 0,0
03.07.2020 23:00:00 27,9 2,1 5 3 W 1016,1 20 -
03.07.2020 22:00:00 29,7 -0,7 5 3 W 1015,0 20 0,0
03.07.2020 21:00:00 31,4 -0,3 8 4 W 1014,3 20 0,0
03.07.2020 20:00:00 33,6 0,3 9 5 W 1013,4 20 -
03.07.2020 19:00:00 34,2 -3,2 5 3 W 1013,0 20 0,0
03.07.2020 18:00:00 33,7 -0,9 8 4 NW 1013,2 20 0,0
03.07.2020 17:00:00 33,5 0,2 9 5 W 1013,6 20 -
03.07.2020 16:00:00 32,9 -0,3 8 4 NW 1014,2 20 0,0
03.07.2020 15:00:00 31,7 2,8 8 4 W 1014,9 20 0,0
03.07.2020 14:00:00 30,8 2,9 5 3 W 1015,4 20 -
03.07.2020 13:00:00 29,9 5,9 5 3 W 1015,8 20 0,0
03.07.2020 12:00:00 28,7 6,7 5 3 SW 1016,2 20 0,0
03.07.2020 11:00:00 26,5 7,5 4 2 SE 1016,3 20 -
03.07.2020 10:00:00 24,3 7,9 4 2 WNW 1016,9 20 0,0
03.07.2020 09:00:00 21,4 7,2 5 3 W 1017,4 20 0,0
03.07.2020 08:00:00 18,9 7,0 5 3 WSW 1017,5 20 -
03.07.2020 07:00:00 19,3 7,1 8 4 WSW 1017,3 20 0,0
03.07.2020 06:00:00 19,8 6,9 8 4 WSW 1017,1 20 0,0
03.07.2020 05:00:00 20,8 7,1 8 4 W 1016,5 20 -
03.07.2020 04:00:00 21,5 6,6 8 4 WSW 1016,2 20 0,0
03.07.2020 03:00:00 22,5 6,7 11 6 WSW 1016,0 20 0,0
03.07.2020 02:00:00 23,5 6,7 8 4 WNW 1015,7 20 -
03.07.2020 01:00:00 24,3 7,4 9 5 WNW 1015,4 20 0,0
03.07.2020 00:00:00 25,5 9,3 8 4 W 1014,9 20 0,0
02.07.2020 23:00:00 26,6 5,5 5 3 W 1014,4 20 -
02.07.2020 22:00:00 27,9 2,9 8 4 W 1013,6 20 0,0
02.07.2020 21:00:00 29,5 1,9 13 7 WNW 1012,8 20 0,0
02.07.2020 20:00:00 32,1 -0,9 11 6 W 1011,8 20 -
02.07.2020 19:00:00 32,8 1,8 13 7 WNW 1011,6 20 0,0
02.07.2020 18:00:00 32,8 4,5 15 8 WNW 1011,9 20 0,0
02.07.2020 17:00:00 33,3 3,2 16 9 W 1011,8 20 -
02.07.2020 16:00:00 32,7 4,5 18 10 WNW 1012,1 20 0,0
02.07.2020 15:00:00 33,0 3,8 16 9 WSW 1012,5 20 0,0
02.07.2020 14:00:00 32,0 3,9 15 8 W 1013,0 20 -
02.07.2020 13:00:00 31,8 3,7 11 6 W 1013,1 20 0,0
02.07.2020 12:00:00 30,5 6,4 13 7 WSW 1013,4 20 0,0
02.07.2020 11:00:00 29,0 9,7 11 6 W 1013,5 20 -
02.07.2020 10:00:00 26,8 10,5 9 5 W 1013,9 20 0,0
02.07.2020 09:00:00 24,2 10,5 5 3 W 1014,3 20 0,0
02.07.2020 08:00:00 21,9 9,8 8 4 WSW 1014,1 20 -
02.07.2020 07:00:00 22,1 8,9 8 4 SW 1013,9 20 0,0
02.07.2020 06:00:00 22,8 8,9 9 5 WSW 1013,2 20 0,0
02.07.2020 05:00:00 23,4 7,5 9 5 WSW 1013,0 20 -
02.07.2020 04:00:00 24,1 7,7 8 4 WSW 1012,8 20 0,0
02.07.2020 03:00:00 24,5 5,8 8 4 WSW 1012,9 20 0,0
02.07.2020 02:00:00 25,6 5,2 5 3 WNW 1012,8 20 -
02.07.2020 01:00:00 26,5 4,9 8 4 SW 1012,7 20 0,0
02.07.2020 00:00:00 27,6 5,2 5 3 WSW 1012,3 20 0,0
01.07.2020 23:00:00 29,1 3,8 5 3 W 1011,6 20 -
01.07.2020 22:00:00 30,8 3,7 13 7 WNW 1010,4 20 0,0
01.07.2020 21:00:00 32,4 4,2 13 7 WNW 1009,6 19 0,0
01.07.2020 20:00:00 34,8 6,2 13 7 WNW 1008,6 20 -
01.07.2020 19:00:00 35,5 5,8 15 8 W 1008,5 20 0,0
01.07.2020 18:00:00 35,8 5,1 16 9 W 1008,8 20 0,0
01.07.2020 17:00:00 35,5 4,9 13 7 W 1009,0 20 -
01.07.2020 16:00:00 35,4 5,7 16 9 W 1009,4 20 0,0
01.07.2020 15:00:00 34,7 6,9 15 8 W 1009,8 20 0,0
01.07.2020 14:00:00 33,6 8,3 13 7 WSW 1010,3 25 -
01.07.2020 13:00:00 32,6 9,4 15 8 WSW 1010,8 20 0,0
01.07.2020 12:00:00 31,5 10,2 15 8 WSW 1011,4 20 0,0
01.07.2020 11:00:00 29,4 11,9 9 5 WSW 1011,6 20 -
01.07.2020 10:00:00 27,6 12,4 9 5 WSW 1012,3 20 0,0
01.07.2020 09:00:00 25,5 12,0 9 5 SW 1012,6 20 0,0
01.07.2020 08:00:00 23,0 12,0 5 3 WSW 1012,7 20 -
01.07.2020 07:00:00 23,1 11,5 8 4 WSW 1012,2 20 0,0
01.07.2020 06:00:00 23,8 11,8 9 5 WSW 1011,5 20 0,0
01.07.2020 05:00:00 24,5 11,4 8 4 SW 1011,1 20 -
01.07.2020 04:00:00 25,4 11,6 11 6 WSW 1010,6 20 0,0
01.07.2020 03:00:00 26,3 10,8 4 2 WSW 1010,5 20 0,0
01.07.2020 02:00:00 27,4 9,2 13 7 WSW 1010,4 20 -
01.07.2020 01:00:00 28,7 8,4 9 5 SW 1010,1 20 0,0
01.07.2020 00:00:00 30,0 7,8 8 4 SW 1009,2 20 0,0
30.06.2020 23:00:00 31,3 7,0 13 7 SW 1008,3 20 -
30.06.2020 22:00:00 32,6 6,0 8 4 SW 1007,2 20 0,0
30.06.2020 21:00:00 34,4 5,8 9 5 SW 1006,3 20 0,0
30.06.2020 20:00:00 36,6 2,6 13 7 WSW 1005,8 20 -
30.06.2020 19:00:00 37,6 3,4 11 6 WSW 1005,5 20 0,0
30.06.2020 18:00:00 37,9 4,7 13 7 WSW 1005,8 20 0,0
30.06.2020 17:00:00 38,2 3,8 15 8 WSW 1006,2 20 -
30.06.2020 16:00:00 38,1 7,9 11 6 W 1006,4 20 0,0
30.06.2020 15:00:00 38,0 7,8 9 5 SW 1006,9 19 0,0
30.06.2020 14:00:00 36,9 7,8 8 4 SW 1007,8 20 -
30.06.2020 13:00:00 35,9 8,7 4 2 ESE 1008,3 20 0,0
30.06.2020 12:00:00 33,7 9,7 4 2 E 1009,1 20 0,0
30.06.2020 11:00:00 31,0 10,4 4 2 E 1010,0 20 -
30.06.2020 10:00:00 27,8 10,0 2 1 SE 1010,9 20 0,0
30.06.2020 09:00:00 23,7 9,7 2 1 ENE 1012,0 20 0,0
30.06.2020 08:00:00 21,4 8,3 2 1 N 1012,5 20 -
30.06.2020 07:00:00 21,7 7,5 2 1 N 1012,2 20 0,0
30.06.2020 06:00:00 22,8 6,9 4 2 N 1011,5 20 0,0
30.06.2020 05:00:00 23,9 6,6 4 2 SSW 1011,0 20 -
30.06.2020 04:00:00 24,5 8,0 4 2 S 1010,7 20 0,0
30.06.2020 03:00:00 25,5 7,1 4 2 ESE 1011,0 20 0,0
30.06.2020 02:00:00 28,3 7,0 2 1 W 1010,6 20 -
30.06.2020 01:00:00 29,1 7,1 5 3 SW 1010,9 20 0,0
30.06.2020 00:00:00 30,3 6,9 5 3 SSW 1010,7 20 0,0
29.06.2020 23:00:00 31,7 7,4 8 4 NW 1009,8 20 -
29.06.2020 22:00:00 33,5 7,5 8 4 NW 1008,8 20 0,0
29.06.2020 21:00:00 35,1 7,2 9 5 NW 1008,0 20 0,0
29.06.2020 20:00:00 37,0 7,0 13 7 NW 1007,6 20 -
29.06.2020 19:00:00 37,9 7,7 9 5 NW 1007,7 20 0,0
29.06.2020 18:00:00 37,9 7,7 11 6 WNW 1008,3 20 0,0
29.06.2020 17:00:00 - - - - - - - -
29.06.2020 16:00:00 - - - - - - - -
29.06.2020 15:00:00 - - - - - - - -
29.06.2020 14:00:00 - - - - - - - -
29.06.2020 13:00:00 - - - - - - - -
29.06.2020 12:00:00 32,6 10,0 4 2 N 1013,3 20 0,0
29.06.2020 11:00:00 30,7 11,1 4 2 ENE 1013,9 20 -
29.06.2020 10:00:00 27,8 11,4 4 2 NE 1014,7 20 0,0
29.06.2020 09:00:00 24,5 10,4 4 2 NNE 1015,5 20 0,0
29.06.2020 08:00:00 21,6 9,8 2 1 E 1015,9 20 -
29.06.2020 07:00:00 20,9 8,5 2 1 NW 1015,9 20 0,0
29.06.2020 06:00:00 21,8 8,7 4 2 W 1015,2 20 0,0
29.06.2020 05:00:00 22,8 8,9 4 2 SSW 1015,0 20 -
29.06.2020 04:00:00 24,2 8,6 2 1 SW 1014,6 20 0,0
29.06.2020 03:00:00 25,2 6,9 2 1 NW 1014,5 20 0,0
29.06.2020 02:00:00 25,8 7,4 4 2 WNW 1014,6 20 -
29.06.2020 01:00:00 26,9 7,9 8 4 WNW 1014,4 20 0,0
29.06.2020 00:00:00 27,9 8,7 5 3 WNW 1014,0 20 0,0
28.06.2020 23:00:00 29,3 9,4 8 4 NW 1013,2 20 -
28.06.2020 22:00:00 31,1 8,1 9 5 WNW 1012,4 20 0,0
28.06.2020 21:00:00 32,7 7,5 11 6 WNW 1011,8 20 0,0
28.06.2020 20:00:00 34,7 8,4 11 6 W 1011,3 20 -
28.06.2020 19:00:00 35,6 8,4 9 5 NW 1011,0 20 0,0
28.06.2020 18:00:00 35,6 9,2 5 3 NW 1011,3 20 0,0
28.06.2020 17:00:00 35,7 9,3 5 3 NW 1011,7 20 -

tt = temperature
td = dewpoint
ff = wind speed
dd = wind direction
ppp = reduced air pressure
vv = visibility
rr = precipitation

Next stations